TimePDT,TemperatureF,Dew PointF,Humidity,Sea Level PressureIn,VisibilityMPH,Wind Direction,Wind SpeedMPH,Gust SpeedMPH,PrecipitationIn,Events,Conditions,WindDirDegrees,DateUTC
12:56 AM,45.0,36.0,71,30.08,10.0,NW,5.8,-,N/A,,Clear,310,2012-10-15 07:56:00
1:56 AM,43.0,35.1,74,30.08,10.0,NW,5.8,-,N/A,,Clear,320,2012-10-15 08:56:00
2:56 AM,42.8,33.8,70,30.14,10.0,NNW,3.5,-,N/A,,Clear,330,2012-10-15 09:56:00
3:56 AM,43.0,34.0,71,30.06,10.0,WNW,8.1,-,N/A,,Clear,300,2012-10-15 10:56:00
4:56 AM,42.8,33.8,70,30.17,10.0,NNW,4.6,-,N/A,,Clear,330,2012-10-15 11:56:00
5:56 AM,43.0,33.1,68,30.07,10.0,NE,5.8,-,N/A,,Clear,40,2012-10-15 12:56:00
6:56 AM,41.0,33.1,73,30.10,10.0,NW,4.6,-,N/A,,Clear,320,2012-10-15 13:56:00
7:56 AM,46.9,34.0,61,30.11,10.0,West,4.6,-,N/A,,Clear,260,2012-10-15 14:56:00
8:56 AM,55.9,34.0,44,30.12,10.0,North,4.6,-,N/A,,Clear,10,2012-10-15 15:56:00
9:56 AM,63.0,34.0,34,30.11,10.0,North,4.6,-,N/A,,Clear,350,2012-10-15 16:56:00
11:56 AM,71.1,30.9,23,30.06,10.0,Calm,Calm,-,N/A,,Clear,0,2012-10-15 18:56:00
12:56 PM,73.9,30.0,20,30.02,10.0,Calm,Calm,-,N/A,,Clear,0,2012-10-15 19:56:00
1:56 PM,80.1,26.1,14,29.98,10.0,Calm,Calm,-,N/A,,Clear,0,2012-10-15 20:56:00
2:56 PM,79.0,23.0,13,29.95,10.0,NNW,3.5,-,N/A,,Clear,330,2012-10-15 21:56:00
3:56 PM,80.6,21.2,11,30.03,10.0,WNW,3.5,-,N/A,,Clear,300,2012-10-15 22:56:00
4:56 PM,80.1,18.0,10,29.92,10.0,SSW,4.6,-,N/A,,Clear,210,2012-10-15 23:56:00
5:56 PM,73.0,25.0,17,29.93,10.0,South,3.5,-,N/A,,Clear,180,2012-10-16 00:56:00
6:56 PM,64.9,28.0,25,29.97,10.0,Calm,Calm,-,N/A,,Clear,0,2012-10-16 01:56:00
7:56 PM,59.0,30.0,33,30.00,10.0,Calm,Calm,-,N/A,,Clear,0,2012-10-16 02:56:00
8:56 PM,52.0,34.0,50,30.01,10.0,NW,3.5,-,N/A,,Clear,310,2012-10-16 03:56:00
9:56 PM,50.0,34.0,54,30.01,10.0,NW,5.8,-,N/A,,Clear,310,2012-10-16 04:56:00
10:56 PM,46.9,33.1,59,30.01,10.0,Calm,Calm,-,N/A,,Clear,0,2012-10-16 05:56:00
11:56 PM,45.0,33.1,63,30.00,10.0,NNW,5.8,-,N/A,,Clear,330,2012-10-16 06:56:00